Weather History for St. Inigoes, MD

Change the Weather History Date:

Thursday, May 9, 2013

  Actual Average (KNHK) Record (KNHK)
Temperature  
Mean Temperature 64 °F -  
Max Temperature 73 °F 68 °F 87 °F (2000)
Min Temperature 57 °F 49 °F 39 °F (1977)
Growing Degree Days 14 (Base 50)    
Moisture  
Dew Point 57 °F    
Average Humidity 78    
Maximum Humidity 94    
Minimum Humidity 59    
Precipitation  
Precipitation 0.19 in - - ()
Sea Level Pressure  
Sea Level Pressure 29.98 in    
Wind  
Wind Speed 3 mph (SW)    
Max Wind Speed 9 mph    
Max Gust Speed -    
Visibility 10 miles    
Events Rain , Thunderstorm    
Averages and records for this station are not official NWS values.
T = Trace of Precipitation, MM = Missing Value Source: NWS Daily Summary

Daily Weather History Graph

Daily Weather History Graph

Search for Another Location

Airport:

Trip Planner

Search our weather history database for the weather conditions in past years. The results will help you decide how hot, cold, wet, or windy it might be!

Date:

Astronomy

May. 09, 2013 Rise Set
Actual Time 6:00 AM EDT 8:04 PM EDT
Civil Twilight 5:31 AM EDT 8:33 PM EDT
Nautical Twilight 4:55 AM EDT 9:09 PM EDT
Astronomical Twilight 4:17 AM EDT 9:47 PM EDT
Moon 5:43 AM EDT (5/9) 7:57 PM EDT (5/9)
Length of Visible Light 15h 02m
Length of Day
14h 04m
Waning Crescent, 0% of the Moon is Illuminated
May 9
Waning Crescent
May 9
New
May 18
First Quarter
May 25
Full
May 31
Last Quarter

Hourly Weather History & Observations

Time (EDT) Temp. Dew Point Humidity Pressure Visibility Wind Dir Wind Speed Gust Speed Precip Events Conditions
12:04 AM 59.0 °F 57.2 °F 94% 29.96 in 10.0 mi Calm Calm - N/A   Overcast
12:31 AM 59.0 °F 57.2 °F 94% 29.95 in 10.0 mi Calm Calm - 0.01 in Rain , Thunderstorm Heavy Rain
12:40 AM 59.0 °F 57.2 °F 94% 29.95 in 10.0 mi Calm Calm - 0.01 in Rain Heavy Rain
12:53 AM 59.0 °F 57.0 °F 93% 29.95 in 10.0 mi Calm Calm - 0.01 in Rain Light Rain
7:53 AM 57.0 °F 54.0 °F 89% 29.98 in 10.0 mi West 5.8 mph - 0.02 in   Overcast
8:53 AM 59.0 °F 55.0 °F 87% 29.99 in 10.0 mi WSW 6.9 mph - 0.02 in   Mostly Cloudy
9:02 AM 59.0 °F 53.6 °F 82% 29.98 in 10.0 mi WSW 5.8 mph - 0.01 in   Scattered Clouds
9:53 AM 59.0 °F 55.0 °F 87% 30.00 in 10.0 mi WSW 6.9 mph - 0.02 in   Partly Cloudy
10:53 AM 63.0 °F 55.9 °F 78% 30.00 in 10.0 mi SW 6.9 mph - 0.03 in   Clear
11:53 AM 66.0 °F 57.0 °F 73% 30.00 in 10.0 mi West 4.6 mph - 0.02 in   Clear
12:53 PM 68.0 °F 57.0 °F 68% 29.98 in 10.0 mi SW 6.9 mph - 0.03 in   Clear
1:53 PM 71.1 °F 57.0 °F 61% 29.97 in 10.0 mi Variable 5.8 mph - 0.02 in   Clear
2:53 PM 71.1 °F 60.1 °F 68% 29.97 in 10.0 mi South 9.2 mph - 0.02 in   Clear
3:53 PM 72.0 °F 57.0 °F 59% 29.96 in 10.0 mi SSW 5.8 mph - N/A   Clear
4:53 PM 72.0 °F 57.0 °F 59% 29.96 in 10.0 mi SW 4.6 mph - N/A   Clear
5:53 PM 72.0 °F 57.0 °F 59% 29.96 in 10.0 mi South 3.5 mph - N/A   Partly Cloudy
6:53 PM 71.1 °F 57.0 °F 61% 29.96 in 10.0 mi South 4.6 mph - N/A   Partly Cloudy
7:53 PM 68.0 °F 59.0 °F 73% 29.97 in 10.0 mi SSE 3.5 mph - N/A   Scattered Clouds
8:53 PM 64.0 °F 60.1 °F 87% 29.99 in 10.0 mi Calm Calm - N/A   Partly Cloudy
9:53 PM 64.0 °F 59.0 °F 84% 30.00 in 10.0 mi Calm Calm - N/A   Overcast
10:53 PM 62.1 °F 57.9 °F 86% 30.00 in 10.0 mi Calm Calm - N/A   Clear
11:53 PM 62.1 °F 59.0 °F 90% 30.01 in 10.0 mi Calm Calm - N/A   Clear